This is the latest recevied weather packets stored in our database for station/object N8WJW. If no packets are shown the sender has not sent any weather packets the latest 10 day(s).
| Time | Temp. | Humidity | Pressure | Rain* | Wind** | Luminosity | Snow |
|---|---|---|---|---|---|---|---|
| 1777992935 | 17.78° C | 69% | 1008.2 hPa | 0 mm | - | 92 W/m² | - |
| 1777992633 | 18.33° C | 70% | 1007.9 hPa | 0 mm | - | 150 W/m² | - |
| 1777992331 | 18.33° C | 69% | 1008 hPa | 0 mm | - | 160 W/m² | - |
| 1777992028 | 18.33° C | 70% | 1008 hPa | 0 mm | - | 220 W/m² | - |
| 1777991726 | 18.33° C | 70% | 1007.7 hPa | 0 mm | - | 198 W/m² | - |
| 1777991422 | 18.33° C | 70% | 1007.7 hPa | 0 mm | - | 193 W/m² | - |
| 1777991120 | 18.33° C | 70% | 1007.7 hPa | 0 mm | - | 187 W/m² | - |
| 1777990817 | 17.78° C | 71% | 1007.3 hPa | 0 mm | - | 167 W/m² | - |
| 1777990514 | 18.33° C | 71% | 1007.1 hPa | 0 mm | - | 175 W/m² | - |
| 1777989908 | 18.33° C | 72% | 1007.4 hPa | 0 mm | - | 107 W/m² | - |
| 1777989604 | 17.78° C | 74% | 1007.4 hPa | 0 mm | - | 71 W/m² | - |
| 1777989301 | 17.78° C | 73% | 1007.3 hPa | 0 mm | - | 64 W/m² | - |
| 1777988997 | 17.22° C | 74% | 1007.3 hPa | 0 mm | - | 61 W/m² | - |
| 1777988693 | 17.22° C | 75% | 1007.3 hPa | 0 mm | - | 107 W/m² | - |
| 1777988390 | 17.22° C | 77% | 1007.4 hPa | 0 mm | - | 58 W/m² | - |
| 1777988088 | 16.67° C | 76% | 1007.4 hPa | 0 mm | - | 65 W/m² | - |
| 1777987783 | 16.67° C | 77% | 1007 hPa | 0 mm | - | 77 W/m² | - |
| 1777987480 | 16.67° C | 76% | 1007.2 hPa | 0 mm | - | 96 W/m² | - |
| 1777987178 | 16.67° C | 77% | 1007.3 hPa | 0 mm | - | 109 W/m² | - |
| 1777986874 | 16.11° C | 77% | 1007.5 hPa | 0 mm | - | 99 W/m² | - |
| 1777986572 | 16.11° C | 76% | 1007.3 hPa | 0 mm | - | 86 W/m² | - |
| 1777986270 | 16.11° C | 76% | 1007.2 hPa | 0 mm | - | 86 W/m² | - |
| 1777985967 | 16.11° C | 76% | 1007.4 hPa | 0 mm | - | 81 W/m² | - |
| 1777985665 | 16.11° C | 75% | 1007.2 hPa | 0 mm | - | 70 W/m² | - |
| 1777985361 | 16.11° C | 75% | 1007.4 hPa | 0 mm | - | 61 W/m² | - |
* Rain latest hour (hover to see other rain measurements)
** Current wind speed in m/s (hover to see current wind gust speed)